Regional Weather Roundup
Issued by NWS

Home | Current Version | Previous Version | Text Only | Print | Product List | Glossary On
Versions: 1 2 3 4 5 6 7 8 9 10 11 12 13 14 15 16 17 18 19 20 21 22 23 24 25 26 27 28 29 30 31 32 33 34 35 36 37 38 39 40 41 42 43 44 45 46 47 48 49 50
255
ASUS43 KTOP 030359
RWRKS

WEATHER ROUNDUP FOR KANSAS
NATIONAL WEATHER SERVICE GOODLAND KS
1100 PM CDT MON MAY 02 2016

NOTE:  "FAIR" INDICATES FEW OR NO CLOUDS BELOW 12,000 FEET WITH NO
SIGNIFICANT WEATHER AND/OR OBSTRUCTIONS TO VISIBILITY.

KSZ001>006-013>018-027>032-041>047-030500-
NORTHWEST KANSAS

CITY           SKY/WX    TMP DP  RH WIND       PRES   REMARKS
GOODLAND       CLOUDY    48  36  63 SW5       30.07R
HAYS           CLOUDY    52  37  58 E8        30.07R
HILL CITY      CLOUDY    50  41  71 E5        30.06R
RUSSELL        PTCLDY    51  41  68 SE12      30.06R
$$

KSZ061>065-074>080-084>089-030500-
SOUTHWEST KANSAS

CITY           SKY/WX    TMP DP  RH WIND       PRES   REMARKS
DODGE CITY     CLEAR     46  36  68 S7        30.09S
ELKHART          N/A     47  34  61 SE8         N/A
GARDEN CITY    CLEAR     45  35  68 S9        30.08S
GREAT BEND     PTCLDY    48  39  71 S6        30.08S
LIBERAL        CLEAR     48  34  57 S5        30.12S
$$

KSZ066>073-081>083-090>101-030500-
SOUTHEAST KANSAS

CITY           SKY/WX    TMP DP  RH WIND       PRES   REMARKS
CHANUTE        CLEAR     45  42  89 CALM      30.09S
COFFEYVILLE    CLEAR     47  45  93 CALM      30.10S
HUTCHINSON     CLEAR     44  39  82 E5        30.09S
MEDICINE LODGE   N/A     52  39  61 S3        30.10R
NEWTON         CLEAR     52  34  50 CALM      30.11S
PARSONS        CLEAR     45  44  97 CALM      30.11R
WICHITA INTL   CLEAR     51  40  65 E5        30.09S
WICHITA JABRA  CLEAR     50  41  71 S3        30.09S
WINFIELD       CLEAR     48  43  82 CALM      30.24F
$$

KSZ007>012-019>026-033>040-048>060-102>105-030500-
NORTHEAST KANSAS

CITY           SKY/WX    TMP DP  RH WIND       PRES   REMARKS
CONCORDIA      PTCLDY    47  38  71 S6        30.06F
EMPORIA        CLEAR     47  43  86 S6        30.09S
LAWRENCE       PTCLDY    43  42  97 CALM      30.08S
MANHATTAN      PTCLDY    49  42  77 SW3       30.08R
OLATHE IND     CLEAR     48  44  86 CALM      30.08S
OLATHE EXE     CLEAR     47  44  90 W5        30.08S
SALINA         CLOUDY    49  44  83 S5        30.08S
TOPEKA BILLARD PTCLDY    47  44  90 CALM      30.08S
TOPEKA FORBES  PTCLDY    48  44  86 SW3       30.08S
$$




USA.gov is the U.S. government's official web portal to all federal, state and local government web resources and services.